UX971 LEMD-EFRO

Flight info

Callsign UX971
Flight time N/A
Altitude 38000
Route RBO N867 DGO L176 LUSEM DCT LULUT DCT ADABI DCT BOKNO UN858 VANAD UN874 BAMES UT191 PODEM UN873 BAZOS DCT BELDI/N0458F370 DCT VICOT DCT DOROR/N0456F390 DCT XENTA DCT NEMGU
Aircraft A20N/M-SDE2E3FGHIRWXY/LB1

Departure

Time 2026-05-07 20:29
Airport Adolfo Suárez Madrid–Barajas Airport (LEMD)

Arrival

Time N/A
Airport Rovaniemi Airport (EFRO)
Time Latitude Longitude Altitude Speed Heading
2026-05-07 20:13 40.49285 -3.56863 1982 ft 0 kts 90°
2026-05-07 20:22 40.49285 -3.56866 1982 ft 0 kts 98°
2026-05-07 20:22 40.49286 -3.56878 1982 ft 2 kts 98°
2026-05-07 20:22 40.49289 -3.56901 1980 ft 3 kts 98°
2026-05-07 20:22 40.49291 -3.56924 1980 ft 3 kts 98°
2026-05-07 20:23 40.49294 -3.56947 1980 ft 3 kts 98°
2026-05-07 20:23 40.49298 -3.56970 1980 ft 3 kts 124°
2026-05-07 20:23 40.49314 -3.56995 1980 ft 4 kts 140°
2026-05-07 20:23 40.49339 -3.57008 1983 ft 3 kts 177°
2026-05-07 20:24 40.49347 -3.57009 1980 ft 0 kts 180°
2026-05-07 20:25 40.49326 -3.57011 1982 ft 5 kts 193°
2026-05-07 20:26 40.49295 -3.57055 1980 ft 8 kts 243°
2026-05-07 20:26 40.49261 -3.57115 1980 ft 9 kts 212°
2026-05-07 20:26 40.49200 -3.57143 1983 ft 10 kts 216°
2026-05-07 20:26 40.49182 -3.57231 1980 ft 11 kts 268°
2026-05-07 20:27 40.49181 -3.57317 1980 ft 9 kts 271°
2026-05-07 20:27 40.49182 -3.57349 1980 ft 3 kts 272°
2026-05-07 20:27 40.49183 -3.57386 1980 ft 6 kts 271°
2026-05-07 20:27 40.49203 -3.57449 1983 ft 9 kts 314°
2026-05-07 20:28 40.49273 -3.57462 1980 ft 13 kts
2026-05-07 20:28 40.49568 -3.57460 1980 ft 76 kts
2026-05-07 20:28 40.50297 -3.57469 1980 ft 132 kts 359°
2026-05-07 20:28 40.51374 -3.57476 1998 ft 174 kts
2026-05-07 20:29 40.52630 -3.57503 2352 ft 185 kts 360°
2026-05-07 20:29 40.53956 -3.57531 2853 ft 195 kts
2026-05-07 20:29 40.55343 -3.57524 3409 ft 203 kts
2026-05-07 20:29 40.56666 -3.57474 3924 ft 210 kts
2026-05-07 20:30 40.58064 -3.57027 4338 ft 222 kts 21°
2026-05-07 20:30 40.59575 -3.56237 4691 ft 242 kts 24°
2026-05-07 20:30 40.61146 -3.55424 5553 ft 240 kts 22°
2026-05-07 20:30 40.62729 -3.54681 6294 ft 244 kts 20°
2026-05-07 20:31 40.64394 -3.54178 7048 ft 248 kts
2026-05-07 20:31 40.66132 -3.54022 7765 ft 252 kts
2026-05-07 20:31 40.67886 -3.53879 8468 ft 255 kts
2026-05-07 20:31 40.69638 -3.53529 9144 ft 256 kts 23°
2026-05-07 20:32 40.71094 -3.52230 9785 ft 255 kts 51°
2026-05-07 20:32 40.72127 -3.50307 10330 ft 265 kts 57°
2026-05-07 20:32 40.73198 -3.48209 10549 ft 287 kts 57°
2026-05-07 20:32 40.74367 -3.45938 10757 ft 309 kts 57°
2026-05-07 20:33 40.75618 -3.43521 10958 ft 330 kts 56°
2026-05-07 20:33 40.76947 -3.40958 11308 ft 344 kts 56°
2026-05-07 20:33 40.78310 -3.38333 11972 ft 347 kts 56°
2026-05-07 20:33 40.79676 -3.35699 12627 ft 351 kts 56°
2026-05-07 20:34 40.81063 -3.33023 13272 ft 354 kts 56°
2026-05-07 20:34 40.82434 -3.30374 13894 ft 357 kts 56°
2026-05-07 20:34 40.83859 -3.27669 14501 ft 361 kts 52°
2026-05-07 20:34 40.85711 -3.25421 15091 ft 366 kts 33°
2026-05-07 20:35 40.88045 -3.24069 15650 ft 371 kts 14°
2026-05-07 20:35 40.90611 -3.23441 16081 ft 378 kts 10°
2026-05-07 20:35 40.93195 -3.22881 16768 ft 377 kts 10°
2026-05-07 20:35 40.95801 -3.22317 17230 ft 382 kts 10°
2026-05-07 20:36 40.98381 -3.21752 17738 ft 385 kts 10°
2026-05-07 20:36 41.01051 -3.21159 18267 ft 387 kts 10°
2026-05-07 20:36 41.03711 -3.20566 18722 ft 391 kts 10°
2026-05-07 20:36 41.06411 -3.19960 19274 ft 392 kts 10°
2026-05-07 20:37 41.09062 -3.19364 19640 ft 397 kts 10°
2026-05-07 20:37 41.11759 -3.18759 20144 ft 398 kts 10°
2026-05-07 20:37 41.14508 -3.18140 20547 ft 402 kts 10°
2026-05-07 20:37 41.17264 -3.17520 20966 ft 406 kts 10°
2026-05-07 20:38 41.20054 -3.16891 21283 ft 410 kts 10°
2026-05-07 20:38 41.22846 -3.16260 21728 ft 411 kts 11°
2026-05-07 20:38 41.25677 -3.15621 22166 ft 413 kts 10°
2026-05-07 20:38 41.28492 -3.14985 22543 ft 416 kts 10°
2026-05-07 20:39 41.31333 -3.14341 22948 ft 417 kts 10°
2026-05-07 20:39 41.34130 -3.13707 23300 ft 420 kts 10°
2026-05-07 20:39 41.37013 -3.13054 23689 ft 423 kts 10°
2026-05-07 20:39 41.39923 -3.12394 24035 ft 425 kts 10°
2026-05-07 20:40 41.42807 -3.11738 24452 ft 426 kts 10°
2026-05-07 20:40 41.45743 -3.11071 24844 ft 427 kts 10°
2026-05-07 20:40 41.48698 -3.10399 25151 ft 431 kts 10°
2026-05-07 20:40 41.51645 -3.09728 25551 ft 432 kts 10°
2026-05-07 20:41 41.54675 -3.09041 25848 ft 435 kts 10°
2026-05-07 20:41 41.57676 -3.08362 26160 ft 438 kts 10°
2026-05-07 20:41 41.60673 -3.07682 26500 ft 439 kts 10°
2026-05-07 20:41 41.63697 -3.06996 26777 ft 442 kts 10°
2026-05-07 20:42 41.66698 -3.06314 27104 ft 443 kts 10°
2026-05-07 20:42 41.69693 -3.05632 27365 ft 446 kts 10°
2026-05-07 20:42 41.72797 -3.04925 27621 ft 449 kts 10°
2026-05-07 20:42 41.75883 -3.04219 27896 ft 450 kts 10°
2026-05-07 20:43 41.78947 -3.03514 28115 ft 453 kts 11°
2026-05-07 20:43 41.82054 -3.02798 28400 ft 454 kts 10°
2026-05-07 20:43 41.85218 -3.02068 28652 ft 455 kts 10°
2026-05-07 20:43 41.88341 -3.01347 28829 ft 458 kts 10°
2026-05-07 20:44 41.91486 -3.00620 29043 ft 460 kts 11°
2026-05-07 20:44 41.94651 -2.99889 29200 ft 462 kts 11°
2026-05-07 20:44 41.97821 -2.99155 29452 ft 463 kts 10°
2026-05-07 20:44 42.00997 -2.98420 29691 ft 464 kts 11°
2026-05-07 20:45 42.04191 -2.97679 29794 ft 467 kts 10°
2026-05-07 20:45 42.07389 -2.96937 30010 ft 468 kts 11°
2026-05-07 20:45 42.10597 -2.96192 30231 ft 468 kts 11°
2026-05-07 20:45 42.13820 -2.95443 30402 ft 470 kts 10°
2026-05-07 20:46 42.17026 -2.94697 30688 ft 470 kts 11°
2026-05-07 20:46 42.20275 -2.93939 30812 ft 473 kts 11°
2026-05-07 20:46 42.23500 -2.93187 30993 ft 475 kts 11°
2026-05-07 20:46 42.26776 -2.92421 31192 ft 475 kts 11°
2026-05-07 20:47 42.30029 -2.91661 31526 ft 474 kts 11°
2026-05-07 20:47 42.33224 -2.90913 31760 ft 474 kts 11°
2026-05-07 20:47 42.35376 -2.90409 31914 ft 474 kts 11°
2026-05-07 20:47 42.38626 -2.89647 32185 ft 473 kts 11°
2026-05-07 20:48 42.41831 -2.88765 32562 ft 469 kts 17°
2026-05-07 20:48 42.44891 -2.87220 32805 ft 467 kts 27°
2026-05-07 20:48 42.47683 -2.85019 33073 ft 466 kts 36°
2026-05-07 20:48 42.50189 -2.82237 33315 ft 464 kts 43°
2026-05-07 20:49 42.52591 -2.79329 33576 ft 463 kts 42°
2026-05-07 20:49 42.55008 -2.76423 33833 ft 462 kts 42°
2026-05-07 20:49 42.57410 -2.73534 34057 ft 462 kts 42°
2026-05-07 20:49 42.59822 -2.70627 34217 ft 463 kts 42°
2026-05-07 20:50 42.62222 -2.67728 34277 ft 465 kts 42°
2026-05-07 20:50 42.64653 -2.64788 34496 ft 464 kts 42°
2026-05-07 20:50 42.67051 -2.61883 34701 ft 462 kts 42°
2026-05-07 20:50 42.69456 -2.58966 34911 ft 461 kts 42°
2026-05-07 20:51 42.71847 -2.56063 35062 ft 461 kts 42°
2026-05-07 20:51 42.74244 -2.53150 35185 ft 462 kts 42°
2026-05-07 20:51 42.76637 -2.50239 35289 ft 463 kts 42°
2026-05-07 20:51 42.79011 -2.47347 35434 ft 462 kts 42°
2026-05-07 20:52 42.81430 -2.44398 35624 ft 461 kts 43°
2026-05-07 20:52 42.83815 -2.41487 35830 ft 459 kts 43°
2026-05-07 20:52 42.86161 -2.38620 35999 ft 459 kts 43°
2026-05-07 20:52 42.88537 -2.35714 36124 ft 458 kts 43°
2026-05-07 20:53 42.90917 -2.32800 36241 ft 459 kts 43°
2026-05-07 20:53 42.95679 -2.26958 36453 ft 459 kts 43°
2026-05-07 20:53 42.98047 -2.24049 36602 ft 458 kts 43°
2026-05-07 20:54 43.00419 -2.21132 36764 ft 457 kts 43°
2026-05-07 20:54 43.02776 -2.18224 36883 ft 457 kts 43°
2026-05-07 20:54 43.05135 -2.15310 37028 ft 456 kts 43°
2026-05-07 20:55 43.09836 -2.09495 37222 ft 456 kts 43°
2026-05-07 20:55 43.12190 -2.06581 37343 ft 456 kts 43°
2026-05-07 20:55 43.14509 -2.03710 37432 ft 456 kts 43°
2026-05-07 20:56 43.19252 -1.97829 37561 ft 457 kts 43°
2026-05-07 20:56 43.23966 -1.91970 37774 ft 455 kts 43°
2026-05-07 20:57 43.28654 -1.86129 37918 ft 456 kts 43°
2026-05-07 20:57 43.33753 -1.80988 38080 ft 456 kts 31°
2026-05-07 20:58 43.39202 -1.76542 38168 ft 455 kts 34°
2026-05-07 20:58 43.44479 -1.71742 38168 ft 455 kts 34°
2026-05-07 20:59 43.49780 -1.66957 38167 ft 455 kts 34°
2026-05-07 20:59 43.55042 -1.62197 38167 ft 455 kts 34°
2026-05-07 21:00 43.60333 -1.57398 38170 ft 455 kts 34°
2026-05-07 21:00 43.65649 -1.52565 38168 ft 455 kts 34°
2026-05-07 21:01 43.70901 -1.47778 38165 ft 455 kts 34°
2026-05-07 21:01 43.76154 -1.42982 38166 ft 455 kts 34°
2026-05-07 21:02 43.81431 -1.38154 38169 ft 455 kts 34°
2026-05-07 21:02 43.86708 -1.33315 38170 ft 455 kts 34°
2026-05-07 21:03 43.91980 -1.28470 38169 ft 455 kts 34°
2026-05-07 21:03 43.97270 -1.23599 38169 ft 455 kts 34°
2026-05-07 21:04 44.02547 -1.18728 38169 ft 455 kts 34°
2026-05-07 21:04 44.07824 -1.13847 38169 ft 455 kts 34°
2026-05-07 21:05 44.13095 -1.08960 38171 ft 455 kts 34°
2026-05-07 21:05 44.18338 -1.04089 38170 ft 455 kts 34°
2026-05-07 21:06 44.23602 -0.99189 38170 ft 455 kts 34°
2026-05-07 21:06 44.28871 -0.94272 38170 ft 456 kts 34°
2026-05-07 21:07 44.34110 -0.89373 38171 ft 455 kts 34°
2026-05-07 21:07 44.39441 -0.84535 38171 ft 456 kts 30°
2026-05-07 21:08 44.45187 -0.80769 38172 ft 456 kts 24°
2026-05-07 21:08 44.50995 -0.77215 38170 ft 457 kts 24°
2026-05-07 21:09 44.56817 -0.73645 38169 ft 456 kts 24°
2026-05-07 21:09 44.62583 -0.70111 38166 ft 457 kts 24°
2026-05-07 21:10 44.68348 -0.66573 38169 ft 456 kts 24°
2026-05-07 21:10 44.74164 -0.62998 38170 ft 457 kts 24°
2026-05-07 21:11 44.79979 -0.59413 38170 ft 456 kts 24°
2026-05-07 21:11 44.88695 -0.54026 38172 ft 456 kts 24°
2026-05-07 21:12 44.94507 -0.50424 38169 ft 456 kts 24°
2026-05-07 21:12 45.00290 -0.46832 38170 ft 456 kts 24°
2026-05-07 21:13 45.06098 -0.43216 38169 ft 457 kts 24°
2026-05-07 21:13 45.11909 -0.39590 38172 ft 456 kts 24°
2026-05-07 21:14 45.17722 -0.35955 38170 ft 456 kts 25°
2026-05-07 21:14 45.23527 -0.32317 38171 ft 457 kts 25°
2026-05-07 21:15 45.29338 -0.28668 38168 ft 457 kts 25°
2026-05-07 21:15 45.35123 -0.25026 38168 ft 457 kts 25°
2026-05-07 21:16 45.40940 -0.21356 38169 ft 456 kts 25°
2026-05-07 21:16 45.46716 -0.17703 38169 ft 457 kts 25°
2026-05-07 21:17 45.52519 -0.14024 38169 ft 456 kts 25°
2026-05-07 21:17 45.58318 -0.10342 38168 ft 457 kts 25°
2026-05-07 21:18 45.64109 -0.06655 38165 ft 456 kts 25°
2026-05-07 21:18 45.69866 -0.02980 38168 ft 456 kts 25°
2026-05-07 21:19 45.75667 0.00731 38167 ft 457 kts 25°
2026-05-07 21:19 45.81466 0.04448 38171 ft 456 kts 25°
2026-05-07 21:20 45.87274 0.08180 38168 ft 456 kts 25°
2026-05-07 21:20 45.93070 0.11912 38166 ft 457 kts 25°
2026-05-07 21:21 45.98847 0.15641 38168 ft 457 kts 25°
2026-05-07 21:21 46.04667 0.19406 38167 ft 457 kts 25°
2026-05-07 21:22 46.10404 0.23128 38173 ft 456 kts 25°
2026-05-07 21:22 46.16213 0.26904 38169 ft 457 kts 25°
2026-05-07 21:23 46.22004 0.30674 38172 ft 457 kts 25°
2026-05-07 21:23 46.27800 0.34458 38169 ft 457 kts 25°
2026-05-07 21:24 46.33521 0.38204 38167 ft 456 kts 25°
2026-05-07 21:24 46.39317 0.42006 38170 ft 456 kts 25°
2026-05-07 21:25 46.45066 0.45786 38168 ft 457 kts 25°
2026-05-07 21:25 46.50893 0.49626 38168 ft 457 kts 25°
2026-05-07 21:26 46.56774 0.53104 38167 ft 457 kts 17°
2026-05-07 21:26 46.62945 0.55283 38171 ft 457 kts 13°
2026-05-07 21:27 46.69091 0.57329 38167 ft 457 kts 13°
2026-05-07 21:27 46.75293 0.59391 38168 ft 457 kts 13°
2026-05-07 21:28 46.81471 0.61437 38168 ft 458 kts 13°
2026-05-07 21:28 46.87732 0.63512 38169 ft 457 kts 13°
2026-05-07 21:29 46.93896 0.65561 38168 ft 457 kts 13°
2026-05-07 21:29 47.00141 0.67641 38167 ft 458 kts 13°
2026-05-07 21:30 47.06363 0.69303 38173 ft 458 kts
2026-05-07 21:30 47.11708 0.69852 38170 ft 459 kts
2026-05-07 21:31 47.18083 0.70542 38169 ft 459 kts
2026-05-07 21:31 47.24405 0.71215 38170 ft 459 kts
2026-05-07 21:32 47.30781 0.71886 38166 ft 459 kts
2026-05-07 21:32 47.37107 0.72549 38171 ft 459 kts
2026-05-07 21:33 47.43493 0.73220 38169 ft 459 kts
2026-05-07 21:33 47.49809 0.74395 38170 ft 458 kts 13°
2026-05-07 21:34 47.55934 0.77045 38168 ft 458 kts 19°
2026-05-07 21:34 47.61972 0.79986 38169 ft 457 kts 19°
2026-05-07 21:35 47.68013 0.82937 38171 ft 457 kts 19°
2026-05-07 21:35 47.74041 0.85912 38170 ft 457 kts 19°
2026-05-07 21:36 47.80019 0.88874 38169 ft 457 kts 19°
2026-05-07 21:36 47.86102 0.91903 38168 ft 457 kts 19°
2026-05-07 21:37 47.91985 0.94877 38171 ft 457 kts 19°
2026-05-07 21:37 47.98143 0.97999 38170 ft 457 kts 19°
2026-05-07 21:38 48.04127 1.01036 38165 ft 457 kts 19°
2026-05-07 21:38 48.10160 1.04104 38168 ft 456 kts 19°
2026-05-07 21:39 48.16180 1.07174 38169 ft 457 kts 19°
2026-05-07 21:39 48.22212 1.10258 38169 ft 458 kts 19°
2026-05-07 21:40 48.28243 1.13331 38167 ft 458 kts 19°
2026-05-07 21:40 48.34257 1.16399 38170 ft 457 kts 19°
2026-05-07 21:41 48.40249 1.19465 38172 ft 458 kts 19°
2026-05-07 21:41 48.46279 1.22559 38166 ft 457 kts 19°
2026-05-07 21:42 48.52317 1.25664 38170 ft 457 kts 19°
2026-05-07 21:42 48.58345 1.28753 38169 ft 457 kts 19°
2026-05-07 21:43 48.64386 1.31785 38171 ft 457 kts 19°
2026-05-07 21:43 48.70409 1.34815 38170 ft 456 kts 19°
2026-05-07 21:44 48.76436 1.37865 38169 ft 456 kts 19°
2026-05-07 21:44 48.82474 1.40930 38166 ft 457 kts 19°
2026-05-07 21:45 48.88457 1.43974 38168 ft 456 kts 19°
2026-05-07 21:45 48.94470 1.47040 38168 ft 456 kts 19°
2026-05-07 21:46 49.00582 1.49302 38169 ft 458 kts
2026-05-07 21:46 49.06888 1.50752 38169 ft 459 kts
2026-05-07 21:47 49.13231 1.52264 38170 ft 458 kts
2026-05-07 21:47 49.19505 1.53745 38169 ft 458 kts 10°
2026-05-07 21:48 49.25545 1.56647 38168 ft 456 kts 27°
2026-05-07 21:48 49.30781 1.62098 38169 ft 455 kts 44°
2026-05-07 21:49 49.35324 1.68735 38168 ft 455 kts 44°
2026-05-07 21:49 49.39909 1.75415 38169 ft 455 kts 44°
2026-05-07 21:50 49.44497 1.82142 38172 ft 455 kts 44°
2026-05-07 21:50 49.49077 1.88888 38176 ft 456 kts 44°
2026-05-07 21:51 49.53652 1.95646 38168 ft 455 kts 44°
2026-05-07 21:51 49.58210 2.02400 38169 ft 455 kts 45°
2026-05-07 21:52 49.62731 2.09117 38169 ft 455 kts 45°
2026-05-07 21:52 49.67264 2.15868 38168 ft 454 kts 45°
2026-05-07 21:53 49.71769 2.22598 38167 ft 455 kts 45°
2026-05-07 21:53 49.76315 2.29405 38174 ft 456 kts 45°
2026-05-07 21:54 49.80868 2.36241 38169 ft 455 kts 45°
2026-05-07 21:54 49.85394 2.43058 38170 ft 454 kts 45°
2026-05-07 21:55 49.89925 2.49903 38170 ft 454 kts 45°
2026-05-07 21:55 49.94515 2.56630 38170 ft 455 kts 40°
2026-05-07 21:56 49.99712 2.62253 38169 ft 456 kts 31°
2026-05-07 21:56 50.05160 2.67299 38173 ft 456 kts 32°
2026-05-07 21:57 50.10605 2.72393 38173 ft 456 kts 32°
2026-05-07 21:57 50.16029 2.77458 38175 ft 457 kts 32°
2026-05-07 21:58 50.21481 2.82556 38170 ft 456 kts 32°
2026-05-07 21:58 50.26858 2.87597 38166 ft 455 kts 32°
2026-05-07 21:59 50.32298 2.92712 38168 ft 455 kts 32°
2026-05-07 21:59 50.37707 2.97810 38169 ft 455 kts 32°
2026-05-07 22:00 50.43144 3.02949 38169 ft 455 kts 32°
2026-05-07 22:00 50.48556 3.08079 38169 ft 455 kts 32°
2026-05-07 22:01 50.53964 3.13219 38160 ft 454 kts 32°
2026-05-07 22:01 50.59387 3.18386 38164 ft 454 kts 32°
2026-05-07 22:02 50.64780 3.23539 38161 ft 453 kts 32°
2026-05-07 22:02 50.70105 3.28639 38155 ft 453 kts 32°
2026-05-07 22:03 50.75507 3.33829 38159 ft 453 kts 32°
2026-05-07 22:03 50.80895 3.39019 38159 ft 454 kts 32°
2026-05-07 22:04 50.86296 3.44236 38159 ft 454 kts 32°
2026-05-07 22:04 50.91689 3.49460 38165 ft 454 kts 32°
2026-05-07 22:05 50.97051 3.54670 38167 ft 454 kts 32°
2026-05-07 22:05 51.02406 3.59883 38171 ft 455 kts 32°
2026-05-07 22:06 51.07801 3.65152 38167 ft 455 kts 32°
2026-05-07 22:06 51.13141 3.70382 38169 ft 455 kts 32°
2026-05-07 22:07 51.18522 3.75666 38171 ft 456 kts 32°
2026-05-07 22:07 51.23943 3.81004 38171 ft 455 kts 32°
2026-05-07 22:08 51.29336 3.86330 38168 ft 455 kts 32°
2026-05-07 22:08 51.34670 3.91611 38174 ft 455 kts 32°
2026-05-07 22:09 51.40057 3.96960 38169 ft 455 kts 32°
2026-05-07 22:09 51.45435 4.02316 38165 ft 455 kts 32°
2026-05-07 22:10 51.50946 4.07298 38163 ft 455 kts 27°
2026-05-07 22:10 51.56600 4.11848 38161 ft 455 kts 27°
2026-05-07 22:11 51.62189 4.16369 38162 ft 454 kts 27°
2026-05-07 22:11 51.67839 4.20945 38161 ft 454 kts 27°
2026-05-07 22:12 51.72458 4.24696 38156 ft 454 kts 27°
2026-05-07 22:12 51.78105 4.29297 38164 ft 454 kts 27°
2026-05-07 22:13 51.83719 4.33886 38167 ft 455 kts 27°
2026-05-07 22:13 51.89411 4.38552 38165 ft 455 kts 27°
2026-05-07 22:14 51.95019 4.43162 38167 ft 455 kts 27°
2026-05-07 22:14 52.00669 4.47819 38171 ft 456 kts 27°
2026-05-07 22:15 52.06339 4.52505 38169 ft 456 kts 27°
2026-05-07 22:15 52.11954 4.57162 38171 ft 456 kts 28°
2026-05-07 22:16 52.17603 4.61858 38167 ft 455 kts 28°
2026-05-07 22:16 52.23253 4.66569 38170 ft 455 kts 28°
2026-05-07 22:17 52.28888 4.71282 38171 ft 456 kts 28°
2026-05-07 22:17 52.34358 4.75868 38172 ft 456 kts 28°
2026-05-07 22:18 52.42815 4.82986 38172 ft 456 kts 28°
2026-05-07 22:19 52.48419 4.87719 38169 ft 455 kts 28°
2026-05-07 22:19 52.54044 4.92482 38174 ft 455 kts 28°
2026-05-07 22:20 52.59678 4.97271 38168 ft 455 kts 28°
2026-05-07 22:20 52.65316 5.02074 38170 ft 456 kts 28°
2026-05-07 22:21 52.70821 5.06779 38166 ft 455 kts 28°
2026-05-07 22:21 52.76441 5.11594 38172 ft 455 kts 28°
2026-05-07 22:22 52.82069 5.16431 38171 ft 455 kts 28°
2026-05-07 22:22 52.87687 5.21273 38167 ft 455 kts 28°
2026-05-07 22:23 52.93305 5.26129 38170 ft 456 kts 28°
2026-05-07 22:23 52.98923 5.31001 38173 ft 456 kts 28°
2026-05-07 22:24 53.04500 5.35851 38171 ft 456 kts 28°
2026-05-07 22:24 53.10118 5.40752 38171 ft 455 kts 28°
2026-05-07 22:25 53.15728 5.45660 38168 ft 455 kts 28°
2026-05-07 22:25 53.21341 5.50584 38171 ft 455 kts 28°
2026-05-07 22:26 53.26946 5.55516 38171 ft 456 kts 28°
2026-05-07 22:26 53.32559 5.60470 38168 ft 456 kts 28°
2026-05-07 22:27 53.38126 5.65400 38168 ft 455 kts 28°
2026-05-07 22:27 53.43651 5.70305 38167 ft 455 kts 28°
2026-05-07 22:28 53.49262 5.75302 38171 ft 455 kts 28°
2026-05-07 22:28 53.54849 5.80293 38165 ft 455 kts 28°
2026-05-07 22:29 53.60436 5.85299 38165 ft 454 kts 29°
2026-05-07 22:29 53.66010 5.90307 38158 ft 454 kts 29°
2026-05-07 22:30 53.71420 5.95185 38156 ft 453 kts 29°
2026-05-07 22:30 53.76985 6.00216 38155 ft 453 kts 29°
2026-05-07 22:31 53.82542 6.05255 38155 ft 453 kts 29°
2026-05-07 22:31 53.88093 6.10303 38157 ft 453 kts 29°
2026-05-07 22:32 53.93621 6.15347 38158 ft 454 kts 29°
2026-05-07 22:32 53.99172 6.20427 38163 ft 454 kts 29°
2026-05-07 22:33 54.04735 6.25534 38160 ft 454 kts 29°
2026-05-07 22:33 54.10306 6.30663 38163 ft 455 kts 29°
2026-05-07 22:34 54.15876 6.35807 38165 ft 455 kts 29°
2026-05-07 22:34 54.21449 6.40969 38170 ft 456 kts 29°
2026-05-07 22:35 54.27020 6.46147 38167 ft 455 kts 29°
2026-05-07 22:35 54.32513 6.51267 38169 ft 455 kts 29°
2026-05-07 22:36 54.37952 6.56352 38167 ft 456 kts 29°
2026-05-07 22:36 54.43517 6.61572 38170 ft 455 kts 29°
2026-05-07 22:37 54.49080 6.66805 38166 ft 455 kts 29°
2026-05-07 22:37 54.54638 6.72051 38172 ft 455 kts 29°
2026-05-07 22:38 54.60192 6.77309 38167 ft 455 kts 30°
2026-05-07 22:38 54.65743 6.82580 38163 ft 455 kts 30°
2026-05-07 22:39 54.71240 6.87817 38167 ft 454 kts 30°
2026-05-07 22:39 54.76749 6.93083 38167 ft 454 kts 30°
2026-05-07 22:40 54.82312 6.98416 38165 ft 454 kts 30°
2026-05-07 22:40 54.87798 7.03691 38165 ft 454 kts 30°
2026-05-07 22:41 54.93232 7.08926 38159 ft 454 kts 30°
2026-05-07 22:41 54.98761 7.14266 38164 ft 454 kts 30°
2026-05-07 22:42 55.04175 7.19953 38159 ft 454 kts 32°
2026-05-07 22:42 55.09606 7.25592 38165 ft 454 kts 31°
2026-05-07 22:43 55.15032 7.31245 38162 ft 454 kts 32°
2026-05-07 22:43 55.20427 7.36911 38166 ft 455 kts 32°
2026-05-07 22:44 55.25849 7.42634 38170 ft 455 kts 32°
2026-05-07 22:44 55.31276 7.48385 38173 ft 455 kts 32°
2026-05-07 22:45 55.36650 7.54100 38174 ft 456 kts 32°
2026-05-07 22:45 55.42064 7.59877 38168 ft 455 kts 32°
2026-05-07 22:46 55.47472 7.65665 38166 ft 455 kts 32°
2026-05-07 22:46 55.52755 7.71338 38167 ft 455 kts 32°
2026-05-07 22:47 55.58164 7.77165 38167 ft 455 kts 32°
2026-05-07 22:47 55.63529 7.82967 38166 ft 455 kts 32°
2026-05-07 22:48 55.68830 7.88714 38166 ft 454 kts 32°
2026-05-07 22:48 55.74225 7.94582 38164 ft 454 kts 32°
2026-05-07 22:49 55.79614 8.00463 38167 ft 454 kts 32°
2026-05-07 22:49 55.85001 8.06361 38165 ft 454 kts 32°
2026-05-07 22:50 55.90382 8.12273 38166 ft 454 kts 32°
2026-05-07 22:50 55.95761 8.18202 38163 ft 455 kts 32°
2026-05-07 22:51 56.01134 8.24145 38169 ft 455 kts 32°
2026-05-07 22:51 56.06405 8.29992 38171 ft 455 kts 32°
2026-05-07 22:52 56.11783 8.35981 38170 ft 455 kts 33°
2026-05-07 22:52 56.17166 8.41992 38170 ft 456 kts 33°
2026-05-07 22:53 56.22541 8.48014 38173 ft 456 kts 33°
2026-05-07 22:53 56.27918 8.54059 38169 ft 455 kts 33°
2026-05-07 22:54 56.33202 8.60021 38171 ft 455 kts 33°
2026-05-07 22:54 56.38509 8.66026 38169 ft 455 kts 33°
2026-05-07 22:55 56.43934 8.72187 38167 ft 455 kts 33°
2026-05-07 22:55 56.49261 8.78255 38166 ft 455 kts 33°
2026-05-07 22:56 56.53745 8.83381 38164 ft 454 kts 33°
2026-05-07 22:56 56.59906 8.90447 38154 ft 453 kts 33°
2026-05-07 22:57 56.64363 8.95575 38160 ft 453 kts 33°
2026-05-07 22:57 56.69643 9.01672 38149 ft 453 kts 33°
2026-05-07 22:58 56.74953 9.07822 38151 ft 452 kts 33°
2026-05-07 22:58 56.80233 9.13958 38153 ft 452 kts 33°
2026-05-07 22:59 56.85541 9.20149 38156 ft 452 kts 33°
2026-05-07 22:59 56.90858 9.26370 38155 ft 453 kts 33°
2026-05-07 23:00 56.96163 9.32600 38156 ft 453 kts 33°
2026-05-07 23:00 57.01472 9.38856 38161 ft 454 kts 33°
2026-05-07 23:01 57.06765 9.45111 38158 ft 454 kts 33°
2026-05-07 23:01 57.11988 9.51308 38166 ft 455 kts 33°
2026-05-07 23:02 57.17317 9.57653 38171 ft 455 kts 33°
2026-05-07 23:02 57.22568 9.63925 38170 ft 455 kts 34°
2026-05-07 23:03 57.27889 9.70304 38171 ft 455 kts 34°
2026-05-07 23:03 57.33079 9.76547 38169 ft 455 kts 34°
2026-05-07 23:04 57.38431 9.83007 38167 ft 455 kts 34°
2026-05-07 23:04 57.43733 9.89430 38170 ft 455 kts 34°
2026-05-07 23:05 57.49029 9.95866 38168 ft 454 kts 34°
2026-05-07 23:05 57.54312 10.02310 38157 ft 454 kts 34°
2026-05-07 23:06 57.59505 10.08668 38162 ft 453 kts 34°
2026-05-07 23:06 57.64778 10.15146 38149 ft 453 kts 34°
2026-05-07 23:07 57.69987 10.21568 38145 ft 452 kts 34°
2026-05-07 23:07 57.75231 10.28055 38155 ft 452 kts 34°
2026-05-07 23:08 57.80475 10.34565 38149 ft 452 kts 34°
2026-05-07 23:08 57.85718 10.41097 38150 ft 452 kts 34°
2026-05-07 23:09 57.90962 10.47653 38149 ft 453 kts 34°
2026-05-07 23:09 57.96205 10.54231 38155 ft 453 kts 34°